Location: Fours
(44.3167°N, 6.7000°E)
Time: 09:45:04
(UTC+00:00)

ISS - Pass Details

Date: 06 October 2021
Orbit: 417 x 423 km, 51.6° (Epoch: 27 October)

Event Time Altitude Azimuth Distance (km) Brightness Sun altitude
Rises 17:34:22 0° 299° (WNW) 2,365 1.2 -6.1°
Reaches altitude 10° 17:36:29 10° 295° (WNW) 1,499 0.3 -6.5°
Maximum altitude 17:39:47 56° 216° (SW) 505 -3.1 -7.1°
Drops below altitude 10° 17:43:05 10° 137° (SE) 1,493 -1.4 -7.7°
Enters shadow 17:44:25 - 134° (SE) 2,040 -0.7 -7.9°
